Regional Weather Roundup
Issued by NWS Raleigh/Durham, NC

Home | Current Version | Previous Version | Text Only | Print | Product List | Glossary On
Versions: 1 2 3 4 5 6 7 8 9 10 11 12 13 14 15 16 17 18 19 20 21 22 23 24 25 26 27
000
ASUS42 KRAH 180710
RWRRAH
NORTH CAROLINA WEATHER ROUNDUP
NATIONAL WEATHER SERVICE RALEIGH NC
300 AM EDT FRI AUG 18 2017

NOTE: "FAIR" INDICATES FEW OR NO CLOUDS BELOW 12,000 FEET WITH NO
SIGNIFICANT WEATHER AND/OR OBSTRUCTIONS TO VISIBILITY.

NCZ001-053-055-056-065-067-180800-
WESTERN NORTH CAROLINA

CITY           SKY/WX    TMP DP  RH WIND       PRES   REMARKS
ASHEVILLE      FOG       71  32  23 CALM      30.03S VSB 3/4
JEFFERSON      CLEAR     71  66  82 W6        30.07F
MORGANTON      FOG       70  70 100 NW5       30.00F VSB<1/4
HICKORY        PTCLDY    73  73 100 CALM      29.96F
RUTHERFORDTON  PTCLDY    72  72 100 CALM      29.97S
MOUNT AIRY     CLOUDY    75  71  88 CALM      29.97F FOG
BOONE          CLEAR     65  65 100 CALM      30.09S FOG
$$

NCZ021-022-025-041-071-084-088-180800-
CENTRAL NORTH CAROLINA

CITY           SKY/WX    TMP DP  RH WIND       PRES   REMARKS
CHARLOTTE      CLEAR     78  76  93 S3        29.94F
GREENSBORO     CLEAR     77  76  96 SW6       29.94F
WINSTON-SALEM  CLEAR     77  74  90 CALM      29.96F
RALEIGH-DURHAM PTCLDY    77  74  90 S3        29.94F
FORT BRAGG     CLEAR     77  73  88 SE3       29.92F
FAYETTEVILLE   CLEAR     75  75 100 S3        29.93F
BURLINGTON     MOCLDY    76  75  97 CALM      29.93F
LAURINBURG     CLEAR     77  77 100 SW5       29.93F
$$

NCZ011-015-027-028-043-044-047-080-103-180800-
NORTHEASTERN NORTH CAROLINA

CITY           SKY/WX    TMP DP  RH WIND       PRES   REMARKS
ROCKY MT-WILSO CLEAR     75  75 100 S5        29.94F
GREENVILLE     PTCLDY    79  79 100 S5        29.97
WASHINGTON     PTCLDY    79  77  95 S3        29.95S
ELIZABETH CITY CLEAR     79  77  94 S7        29.95S
MANTEO         PTCLDY    82  75  79 SW17      29.96F
CAPE HATTERAS  PTCLDY    83  77  82 S13       29.96F
$$

NCZ078-087-090-091-093-098-101-180800-
SOUTHEASTERN NORTH CAROLINA

CITY           SKY/WX    TMP DP  RH WIND       PRES   REMARKS
LUMBERTON      CLEAR     75  75 100 SE3       29.92F
GOLDSBORO      CLEAR     76  76 100 S3        29.93F FOG
KINSTON        MOCLDY    78  77  97 S5        29.95F FOG
KENANSVILLE    CLOUDY    77  77 100 CALM      29.94F FOG
NEW BERN       PTCLDY    78  77  96 CALM      29.96F
CHERRY POINT   PTCLDY    81  78  91 S6        29.96F
BEAUFORT       CLEAR     83  81  94 S12       29.95F HX  97
JACKSONVILLE   CLEAR     79  79 100 S5        29.94F
WILMINGTON     CLEAR     80  79  96 S3        29.95F
$$





USA.gov is the U.S. government's official web portal to all federal, state and local government web resources and services.